Location: Recife
(8.0585°S, 34.8848°W)
Time: 06:52:04
(UTC-03:00)

Courier 1B - Pass Details

Date: 21 April 2026
Orbit: 962 x 1209 km, 28.3° (Epoch: 13 May)

Event Time Altitude Azimuth Distance (km) Brightness Sun altitude
Rises 23:57:51 0° 338° (NNW) 3,674 - -79.6°
Reaches altitude 10° 00:02:28 10° 7° (N) 2,775 - -78.5°
Maximum altitude 00:05:01 12° 30° (NNE) 2,640 - -77.9°
Drops below altitude 10° 00:07:38 10° 53° (NE) 2,842 - -77.3°
Sets 00:12:29 0° 81° (E) 3,866 - -76.1°
